Regional Weather Roundup
Issued by NWS

Home | Current Version | Previous Version | Graphics & Text | Print | Product List | Glossary On
Versions: 1 2 3 4 5 6 7 8 9 10 11 12 13 14 15 16 17 18 19 20 21 22 23 24 25 26 27 28 29 30 31 32 33 34 35 36 37 38 39 40 41 42 43 44 45 46 47 48 49 50
372
ASUS43 KMPX 172101
RWRMN
WEATHER ROUNDUP FOR MINNESOTA
NATIONAL WEATHER SERVICE TWIN CITIES/CHANHASSEN MN
300 PM CST FRI NOV 17 2017


NOTE: "FAIR" INDICATES FEW OR NO CLOUDS BELOW 12,000 FEET WITH NO
SIGNIFICANT WEATHER AND/OR OBSTRUCTIONS TO VISIBILITY. N/A MEANS
CURRENT SKY AND/OR WEATHER CONDITIONS ARE NOT AVAILABLE.

MNZ060>063-068>070-172200-
   Twin Cities Metro

CITY           SKY/WX    TMP DP  RH WIND       PRES   REMARKS
TWIN CITIES    DRIZZLE   38  38 100 E3        29.62F FOG
ST PAUL        CLOUDY    37  37 100 SE5       29.64S FOG
CRYSTAL        CLOUDY    38  34  85 E3        29.60F FOG
BLAINE         CLOUDY    39  39 100 CALM      29.62F FOG
LAKEVILLE      CLOUDY    36  36 100 CALM      29.61F FOG
EDEN PRAIRIE   CLOUDY    39  37  92 E3        29.60F FOG
SOUTH ST PAUL  CLOUDY    38  38 100 CALM      29.62S FOG
LAKE ELMO      CLOUDY    37  36  93 CALM      29.64R FOG
$$
MNZ001>005-007-008-013>017-022>024-027-028-172200-
   Northwest Minnesota

CITY           SKY/WX    TMP DP  RH WIND       PRES   REMARKS
BEMIDJI        SUNNY     35  29  78 NW12      29.60S WCI  27
HALLOCK        SUNNY     23  18  80 NW8       29.70R WCI  14
ROSEAU         MOSUNNY   27  18  69 W8        29.65S WCI  18
WARROAD        CLOUDY    27  18  69 W8        29.64S WCI  18
CROOKSTON      MOSUNNY   25  18  74 N14       29.70R WCI  13
FOSSTON        SUNNY     30  23  74 NW7       29.64R WCI  23
DETROIT LAKES  SUNNY     36  30  80 N14       29.64R
MOORHEAD       SUNNY     34  21  60 N16       29.68R WCI  23
PARK RAPIDS    SUNNY     38  31  76 NW5       29.60R
MAHNOMEN       FAIR      32  25  74 NW10      29.64R WCI  24
$$
MNZ006-009>011-018-025>026-172200-
   North Central Minnesota

CITY           SKY/WX    TMP DP  RH WIND       PRES   REMARKS
BAUDETTE       MOSUNNY   30  19  63 W10       29.61R WCI  21
FLAG ISLAND    MOSUNNY   27  19  74 W8        29.62S WCI  18
INTL FALLS     CLOUDY    36  28  73 W7        29.59F
WASKISH        CLOUDY    34  30  86 W6        29.61S WCI  29
BIG FORK       MOSUNNY   37  30  75 CALM      29.59F
LONGVILLE      CLOUDY    37  32  81 CALM      29.59F
GRAND RAPIDS   MOSUNNY   35  32  88 S5        29.62F WCI  31
CRANE LAKE     CLOUDY    34  30  86 CALM      29.62S
ORR            CLOUDY    34  28  80 CALM      29.57F
COOK           CLOUDY    34  30  86 CALM      29.60F
WALKER         FAIR      38  30  71 NW3       29.59F
$$
MNZ012-019>021-037-172200-
   Northeast Minnesota

CITY           SKY/WX    TMP DP  RH WIND       PRES   REMARKS
DULUTH         FLURRIES  32  32 100 W8        29.62R WCI  25
ELY            CLOUDY    32  30  93 SW5       29.61S WCI  27
HIBBING        CLOUDY    33  31  92 CALM      29.60F FOG
EVELETH        CLOUDY    32  28  86 CALM      29.62F FOG
DULUTH HARBOR  LGT RAIN  34  32  93 W5        29.65R WCI  30
TWO HARBORS    LGT RAIN  36  30  80 CALM      29.61R
SILVER BAY     LGT RAIN  34  34 100 CALM      29.63R
GRAND MARAIS     N/A     35  35 100 W5        29.66R WCI  31
G MARAIS ARPRT MIX PCPN  28  27  93 SW3       29.61R
$$
MNZ029>031-032-039>041-046>048-054>057-064-172200-
   West Central Minnesota

CITY           SKY/WX    TMP DP  RH WIND       PRES   REMARKS
FERGUS FALLS   CLOUDY    37  30  75 NW8       29.65R
WHEATON        CLOUDY    39  30  70 NW12      29.66R
MORRIS         MOSUNNY   39  34  81 N8        29.61R
ALEXANDRIA     MOSUNNY   37  34  89 E5        29.61S
ELBOW LAKE     FAIR      37  32  84 N6        29.62R HAZE
WADENA         CLOUDY    37  30  75 NW3       29.60S
GLENWOOD       CLOUDY    37  34  87 N7        29.61S
APPLETON         N/A     43  34  70 N8        29.62R
BENSON         CLOUDY    39  34  81 NE7       29.62S
ORTONVILLE     CLOUDY    39  32  75 MISG      29.63R
MADISON        PTSUNNY   45  36  70 N12       29.62R
WILLMAR        FAIR      43  36  75 NE7       29.60F
$$
MNZ033>034-036-042>043-049>051-058-059-172200-
   Central Minnesota

CITY           SKY/WX    TMP DP  RH WIND       PRES   REMARKS
ST CLOUD       LGT RAIN  40  36  86 N5        29.61S
SAUK CENTRE    FAIR      37  33  85 NE6       29.61S
PAYNESVILLE    CLOUDY    39  36  89 NE6       29.60F
AITKIN         CLOUDY    34  32  93 CALM      29.60F
PINE RIVER     CLOUDY    34  30  86 CALM      29.64S
BRAINERD       CLOUDY    37  33  85 N5        29.62F
STAPLES          N/A     37  34  87 CALM      29.60F
LONG PRAIRIE   CLOUDY    36  32  87 NW5       29.61F
LITTLE FALLS   CLOUDY    36  32  87 CALM      29.61F
LITCHFIELD     PTSUNNY   45  37  76 E6        29.58F
BUFFALO        CLOUDY    39  35  84 E5        29.61F FOG
MAPLE LAKE     CLOUDY    41  37  85 E5        29.61F FOG
HUTCHINSON     SUNNY     45  38  76 NE5       29.59S
$$
MNZ037-044-045-052-053-172200-
   East Central Minnesota

CITY           SKY/WX    TMP DP  RH WIND       PRES   REMARKS
PRINCETON      DRIZZLE   39  36  87 SE7       29.60F
MORA           RAIN      34  32  93 SE5       29.63F WCI  30
CAMBRIDGE      FOG       37  37 100 E3        29.62F VSB 3/4
RUSH CITY      LGT RAIN  35  34  95 CALM      29.63F
MOOSE LAKE     LGT SNOW  34  32  93 NW3       29.62R
HINCKLEY       LGT RAIN  36  36 100 CALM      29.62F
CLOQUET        LGT SNOW  34  30  86 CALM      29.62F
MCGREGOR       CLOUDY    34  32  93 CALM      29.62F
$$
MNZ071>073-080-081-089-090-097-098-172200-
   Southwest Minnesota

CITY           SKY/WX    TMP DP  RH WIND       PRES   REMARKS
MONTEVIDEO     CLOUDY    39  34  81 NE9       29.60F
GRANITE FALLS  MOSUNNY   44  36  73 N14       29.62R
CANBY          CLOUDY    43  34  69 N8        29.62R
MARSHALL       SUNNY     44  33  65 N15       29.59F
REDWOOD FALLS  CLOUDY    48  35  60 NE5       29.57F
OLIVIA         MOSUNNY   45  36  70 N7        29.57F
PIPESTONE      MOSUNNY   45  34  65 NE10      29.56R
WINDOM           N/A     46  32  57 NW12      29.57S
WORTHINGTON    CLOUDY    48  39  71 N13       29.56S
JACKSON        CLOUDY    46  39  76 CALM      29.56F
SLAYTON        CLOUDY    44  35  71 N8        29.58S
$$
MNZ065>067-074>077-082>085-091>093-172200-
   South Central Minnesota

CITY           SKY/WX    TMP DP  RH WIND       PRES   REMARKS
MANKATO        CLOUDY    39  37  92 SE5       29.60  FOG
NEW ULM        CLOUDY    45  37  76 CALM      29.57F
ST JAMES       CLOUDY    46  39  76 CALM      29.58F
FAIRMONT       CLOUDY    43  39  86 CALM      29.57F
GLENCOE        CLOUDY    43  38  81 E7        29.59S
FARIBAULT      CLOUDY    37  37 100 SE3       29.60F FOG
OWATONNA       DRIZZLE   37  37 100 SE5       29.60S
WASECA         CLOUDY    37  36  93 SE3       29.61S FOG
ALBERT LEA     DRZL/FOG  37  37 100 S5        29.59S VSB 1
$$
MNZ078>079-086>088-094>096-172200-
   Southeast Minnesota

CITY           SKY/WX    TMP DP  RH WIND       PRES   REMARKS
ROCHESTER      LGT RAIN  37  37 100 S5        29.61S FOG
RED WING       DRIZZLE   37  36  93 CALM      29.63S
STANTON        LGT RAIN  38  37  93 CALM      29.61S
DODGE CENTER   DRIZZLE   36  36 100 S5        29.60S
WINONA         DRIZZLE   36  36 100 CALM      29.65R
AUSTIN         DRIZZLE   37  36  93 S7        29.60S
PRESTON        CLOUDY    36  35  96 S8        29.61F FOG
$$
ABBREVIATIONS USED IN REMARKS
   TC - TEMPERATURES IN CELSIUS
  WCI - WIND CHILL INDEX
   HX - HEAT INDEX
  VSB - VISIBILITY
$$




USA.gov is the U.S. government's official web portal to all federal, state and local government web resources and services.